SL-16 DEB, 22291

Orbit data source: Space-Track

SL-16 DEB, 22291 is space debris in LEO originally from a launch on Fri, 25 Dec 1992 UTC launched from the Tyuratam Missile And Space Complex (TTMTR). Debris objects in space refer to the collection of defunct objects orbiting the Earth. Examples of debris include non-operational satellites, rocket bodies, and fragments generated from explosions, collisions, or faulty payload assembly.

Loading next visibility...
Identifier
22291, 1992-093F
Orbit
LEO
Country
Flag of CISCIS
Related business
Manufacturer
Yuzhnoe
Mission
Spacecraft
Bus & Motor
SEP MOTOR COVER, Unknown motor
Mass
~0 kg wet, ~1 kg dry
Launch date (UTC)
1992-12-25 (33 years ago)
Launch vehicle
Unknown
Launch site
Tyuratam Missile And Space Complex (TTMTR)
Object type
Payload
Rocket body
Debris
Shape & HBR
Unknown shape, 0.1 m
Radar Cross Section
Small (<0.1 m²)

Expand to show TLE details & history
Last TLE update: 16 hours ago

TLE from 16 hours ago
0 SL-16 DEB
1 22291U 92093F   26126.65428799  .00000130  00000-0  16027-3 0  9999
2 22291  71.0093 205.4595 0205984 104.6962  45.8674 13.72550619670044
Epoch: 2026-05-06T15:42Z
TLE epoch observation values (Epoch: 2026-05-06T15:42:10.482Z)
Latitude
26.12946°
Longitude
-84.26306°
Altitude
888.993 km
Speed
7.462 km/s
True Right ascension
01h 03m 10s
True Declination
25° 59' 46"
Sunlit
Object was in daylight at epoch
Visualization orbit readout
Latitude
Unknown
Longitude
Unknown
Altitude
Unknown
Speed
Unknown
Apparent Right ascension
Unknown
Apparent Declination
Unknown
Sunlit
N/A
Visualization observer readout
Local Sidereal Time
15:26:06
Azimuth
Unknown
Elevation
Unknown
Doppler factor
Unknown
Orbital elements
Apogee altitude
1,140.131 km
Perigee altitude
836.654 km
Semi-major axis
7,366.53 km
Eccentricity
0.0206
Inclination
71.0093°
RAAN
205.4595°
Arg. of periapsis
104.6962°
True anomaly
47.59218°
Mean anomaly
45.8674°
Eccentric anomaly
46.7267°
Mean motion
3.4328 °/min
Orbital period
104.87 mins
BSTAR
0.00016027
Loading maneuver chart data...
Computing Atmospheric mass density...
Loading historical data...
Loading historical data...
Loading historical data...
Loading historical data...
Loading historical data...
Loading historical data...
Loading historical data...

Documentation

Showing up to 5 results
|